STARLINK-2482 (48139 NORAD) Tracking and Keplerian Element Data

This shows tracking and keplerian element data for the satellite.

Feedback or suggestion? Click here.




ElementValue
Catalog48139
NameSTARLINK-2482
Epoch Orbit198
Epoch Day173.91668981
Epoch Year2021
RAAN321.678
Inclination53.0459
Eccentricity0.0002307
Argument of Perigee17.5185
Mean Anonmoly8.7135
Mean Motion15.6628963
Decay Rate-0.01091622
L11 48139U 21027AZ 21173.91668981 -.01091622 00000-0 -11586-1 0 9994
L22 48139 53.0459 321.6780 0002307 17.5185 8.7135 15.66289630 1987

Live tracking and technical data element details for STARLINK-2482 (NORAD 48139). STARLINK-2482 can be tracked NOW for your location showing map with azimuth and elevation plus other details from your city location.

Track the satellite on the map from your city or location and see movement details for azimuth, elevation, latitude, longitude, range, height, and movement on the map or in text.







IsCatalogInMostPopularTable: catalog: 48139, numindb: 33
Update: records affected: 1



GetName: 48139 STARLINK-2482

Hit Count: updated at: Thu, 24 Jun 2021 03:35:37 GMT